Regional Weather Roundup
Issued by NWS

Home | Current Version | Previous Version | Graphics & Text | Print | Product List | Glossary On
Versions: 1 2 3 4 5 6 7 8 9 10 11 12 13 14 15 16 17 18 19 20 21 22 23 24 25 26 27 28 29 30 31 32 33 34 35 36 37 38 39 40 41 42 43 44 45 46 47 48 49 50
017
ASUS45 KBOU 310907
RWRCO

WEATHER ROUNDUP FOR COLORADO
NATIONAL WEATHER SERVICE DENVER/BOULDER CO
300 AM MDT WED AUG 31 2016

NOTE: "FAIR" INDICATES FEW OR NO CLOUDS BELOW 12000 FEET WITH NO
SIGNIFICANT WEATHER AND/OR OBSTRUCTIONS TO VISIBILITY.

COZ001>005-013-030-031-311000-
...NORTHWEST COLORADO...

CITY           SKY/WX    TMP DP  RH WIND       PRES   REMARKS
CRAIG          FAIR      61  40  45 E12       30.28S
HAYDEN         FAIR      57  37  47 E13       30.31S
MEEKER         FAIR      54  42  64 NE7       30.29S
MOUNT WERNER   NOT AVBL
STEAMBOAT SPGS FAIR      49  39  68 CALM      30.34S
WALDEN         FAIR      36  32  87 SE6       30.46S
$$

COZ006>008-011-311000-
...WEST CENTRAL VALLEYS...

CITY           SKY/WX    TMP DP  RH WIND       PRES   REMARKS
GRAND JUNCTION FAIR      68  42  38 E13       30.18S
MONTROSE       FAIR      61  45  55 E5        30.28S
EAGLE          FAIR      50  43  76 E5        30.38R
RIFLE          FAIR      64  46  52 E9        30.25R
DELTA          NOT AVBL
NUCLA          FAIR     N/A N/A N/A SE5       30.31S
$$

COZ017>023-064>068-311000-
...SOUTHWEST COLORADO...

CITY           SKY/WX    TMP DP  RH WIND       PRES   REMARKS
DURANGO        MOCLDY    57  45  64 N7        30.36S
CORTEZ         MOCLDY    59  50  72 E7        30.28S
PAGOSA SPRINGS RAIN      57  46  65 CALM      30.43S
TELLURIDE      MOCLDY    49  46  87 SE6       30.51S
WOLF CREEK PAS FAIR      41  37  87 SW8       30.71S
$$

COZ009-010-012-014-032>034-037-058>063-311000-
...CENTRAL COLORADO...

CITY           SKY/WX    TMP DP  RH WIND       PRES   REMARKS
ASPEN          FAIR      47  41  80 SW6       30.41S
BUENA VISTA    FAIR      47  43  85 NW8       30.47S
COPPER MTN     FAIR      45  34  65 S14       30.68S
BERTHOUD PASS  FAIR      37  27  65 W7        30.70S
COTTONWOOD PAS FAIR      52  41  66 CALM      30.57S
GUNNISON       FAIR      52  41  66 NE6       30.46R
KREMMLING      FAIR      41  34  75 CALM      30.43S
LEADVILLE      FAIR      33  32  96 CALM      30.56S
MONARCH PASS   MOCLDY    41  36  81 S3        30.79S
SALIDA         FAIR      55  47  76 NW7       30.52S
SUNLIGHT       FAIR      50  37  62 W5        30.62S
WILKERSON PASS FAIR      41  39  93 W5        30.67S
$$

COZ069>075-311000-
...SAN LUIS VALLEY/SANGRE DE CRISTO MOUNTAINS...

CITY           SKY/WX    TMP DP  RH WIND       PRES   REMARKS
ALAMOSA        FAIR      51  46  83 S7        30.41F
LA VETA PASS   FAIR      45  39  81 MISG      30.58S
SAGUACHE       FAIR      48  45  87 CALM      30.46S
$$

COZ035-036-038>040-311000-
...NORTHERN COLORADO FRONT RANGE...

CITY           SKY/WX    TMP DP  RH WIND       PRES   REMARKS
DENVER INTL AP FAIR      53  50  89 S3        30.30S
DMNS CITY PARK   N/A     57  56  98 S2        30.30S
AURORA         PTCLDY    54  54  99 S8        30.32S
FRONT RANGE AP NOT AVBL
ERIE MUNI ARPT FAIR      55  50  83 CALM      30.30R
BOULDER MUN AP FAIR      59  54  82 CALM      30.30S
CENTENNIAL     FAIR      56  52  86 CALM      30.33R
BROOMFIELD     FAIR      55  50  82 NW7       30.32S
FORT COLLINS   FAIR      57  54  88 CALM      30.30R
LONGMONT       FAIR      58  55  89 CALM      30.31F
$$

COZ041-046-047-076>085-087-088-311000-
...PIKES PEAK/PALMER DIVIDE AND SOUTHERN FOOTHILLS...

CITY           SKY/WX    TMP DP  RH WIND       PRES   REMARKS
COLO. SPRINGS  FAIR      55  50  83 NE10      30.36S
A. F. ACADEMY  FAIR      51  50  95 N7        30.36S
SCHRIEVER AFB  NOT AVBL
ELLICOTT       NOT AVBL
FALCON         FAIR      53  51  94 CALM      30.39S
FORT CARSON    FAIR      55  49  81 NW6       30.32S
LIMON          MOCLDY    51  49  92 CALM      30.31F
MONUMENT HILL  FAIR      50  48  93 SW6       30.40S
TRINIDAD       FAIR      54  50  86 W7        30.33S
$$

COZ042>045-048>051-090-091-311000-
...NORTHEAST COLORADO...

CITY           SKY/WX    TMP DP  RH WIND       PRES   REMARKS
GREELEY ARPT   MOCLDY    57  55  94 E5        30.29S
AKRON          MOCLDY    56  55  97 E5        30.28S FOG
BURLINGTON     CLOUDY    58  55  90 CALM      30.27S
WRAY           CLOUDY   N/A N/A N/A SE5       30.25S HAZE
STERLING       CLOUDY    63  61  94 CALM      30.26S
HOLYOKE        DRIZZLE   63  61  94 NE3       30.25F
FORT MORGAN    FOG       57  56  95 NE5       30.28S VSB 1/4
$$

COZ086-089-092>099-311000-
...SOUTHEAST COLORADO...

CITY           SKY/WX    TMP DP  RH WIND       PRES   REMARKS
PUEBLO         FAIR      59  53  80 CALM      30.27S
LA JUNTA       FAIR      58  54  86 W6        30.24S
LAMAR          FAIR      57  56  96 NE5       30.22S
SPRINGFIELD      N/A     61  61 100 S7        30.26S
$$




USA.gov is the U.S. government's official web portal to all federal, state and local government web resources and services.